Flag Weather past 2 weeks in Port of Spain, Trinidad and Tobago

Now
79 °F

Passing clouds.


Feels Like: 82 °F
Forecast: 79 / 87 °F
Wind: 8 mph from East

Location: Piarco International Airport - Trinidad

Current Time: Nov 24, 2014 at 10:02:46 PM

Latest Report: Nov 24, 2014 at 9:00 PM


Visibility: N/A

Pressure: 29.92 "Hg

Humidity: 79%

Dew point: 72 °F

Location of Port of SpainLocation

Historic Weather in Port of Spain — Graph

°F

Port of Spain temperature yesterday

Maximum temperature yesterday: 86 °F (at 2:00 PM)
Minimum temperature yesterday: 75 °F (at 3:00 AM)
Average temperature yesterday: 79 °F

Past Weeks' High & Low Weather Summary

 TemperatureHumidityPressure
High90 °F (Nov 11, 2:00 PM)100% (Nov 9, 10:00 PM)30.01 "Hg (Nov 9, 10:00 PM)
Low73 °F (Nov 12, 6:00 AM)59% (Nov 11, 1:00 PM)29.77 "Hg (Nov 11, 3:00 PM)
Average78 °F86%29.87 "Hg
* Reported Nov 9 8:00 PM — Nov 24 8:00 PM, Port of Spain, Weather by CustomWeather, © 2014

Note: Actual official high and low records may vary slightly from our data, if they occured in-between our weather recording intervals... More about our weather records

Advertising

Port of Spain weather history for previous 24 hours

 ConditionsComfort  
Time TempWeatherWind HumidityBarometerVisibility
8:00 PM
Nov 24
79 °FPassing clouds.9 mph84%29.89 "HgN/A
7:00 PM81 °FPassing clouds.9 mph74%29.89 "HgN/A
6:00 PM81 °FPassing clouds.12 mph79%29.86 "HgN/A
5:00 PM82 °FScattered clouds.14 mph74%29.86 "HgN/A
4:00 PM86 °FPartly sunny.17 mph66%29.83 "HgN/A
3:00 PM86 °FScattered clouds.17 mph66%29.83 "HgN/A
2:00 PM88 °FPartly sunny.16 mph62%29.86 "HgN/A
1:00 PM84 °FPartly sunny.16 mph74%29.89 "HgN/A
12:00 PM88 °FPartly sunny.15 mph59%29.89 "HgN/A
11:00 AM86 °FPassing clouds.17 mph66%29.92 "HgN/A
10:00 AM86 °FPassing clouds.20 mph62%29.95 "HgN/A
9:00 AM84 °FPassing clouds.15 mph74%29.95 "HgN/A
8:00 AM81 °FScattered clouds.7 mph79%29.92 "HgN/A
7:00 AM79 °FScattered clouds.5 mph79%29.89 "HgN/A
6:00 AM77 °FPassing clouds.5 mph89%29.86 "HgN/A
5:00 AM77 °FPassing clouds.6 mph94%29.86 "HgN/A
4:00 AM77 °FSprinkles. Passing clouds.7 mph94%29.86 "HgN/A
3:00 AM77 °FPassing clouds.No wind94%29.83 "HgN/A
2:00 AM77 °FPassing clouds.No wind94%29.86 "HgN/A
1:00 AM77 °FPassing clouds.No wind94%29.89 "HgN/A
12:00 AM77 °FPassing clouds.No wind94%29.89 "HgN/A
11:00 PM
Nov 23
77 °FScattered showers. Passing clouds.13 mph94%29.89 "Hg5 mi
10:00 PM77 °FPassing clouds.No wind94%29.89 "HgN/A
Weather by CustomWeather, © 2014

See weather overviewHow to use our weather pages